CAPE
0 0 0 0 0 0 0 0 0 0 0 0 0 0 0 0 0 0 0 0 0 0 0 0 0 0 0 0 0 0 0 0 0 0 0 0 0 11 1004 827 899 1156 817 1494 1583 1796 2829 3224 3614 3570 3352 3378 3410 3388 3210 2962 2980 2765 2471 2246 2259 2401 2475 2470 2405 2229 2215 2141 2016 1966 1820 1974 2165 1891 1870 1763 1897 1753 2013 2062 1998 1407 1293 1483 1694 1487
0 0 0 0 0 0 0 0 0 0 0 0 0 0 0 0 0 0 0 0 0 0 0 0 0 0 0 0 0 0 0 0 0 0 0 0 0 0 1039 1112 1040 1368 1362 1035 2011 1615 2633 3103 3543 3551 3261 3210 3325 3211 3177 3117 3089 2905 2759 2446 2371 2396 2441 2308 2345 2267 2198 2117 2086 2084 2007 1789 1730 1982 1911 1964 1857 1854 1831 1901 1728 1614 1312 1314 1356 1255
0 0 0 0 0 0 0 0 0 0 0 0 0 0 0 0 0 0 0 0 0 0 0 0 0 0 0 0 0 0 0 0 0 0 0 0 50 42 518 880 1241 1194 1821 1843 1453 1917 2093 2840 3446 3519 3316 3217 3425 3489 3258 3326 3149 2978 2843 2533 2664 2535 2341 2318 2228 2164 2096 2162 2168 2036 1970 1935 2069 2174 2180 1962 1792 1885 1975 1943 1790 1504 1473 1522 1488 1393
0 0 0 0 0 0 0 0 0 0 0 0 0 0 0 0 0 0 0 0 0 0 0 0 0 0 0 0 0 0 0 0 0 0 0 0 7 443 591 967 1482 1295 1921 2255 1759 1808 1971 2681 3329 3405 3303 3275 3506 3398 3317 3223 3179 2956 2761 2517 2648 2628 2505 2308 2165 2072 2205 2149 2213 1878 2094 2183 2042 2104 2267 1471 1317 1921 1979 1931 1862 1491 1396 1382 1547 1510
0 0 0 0 0 0 0 0 0 0 0 0 0 0 0 0 0 0 0 0 0 0 0 0 0 0 0 0 0 0 0 0 0 0 0 0 494 876 770 1382 1764 1829 2178 2267 1969 1725 1984 2422 3184 3327 3401 3411 3514 3471 3412 3096 3149 2942 2776 2439 2445 2659 2615 2419 2230 2095 2200 2224 2090 2024 1897 2184 2191 2191 2289 1972 1942 1894 1860 1672 1632 1604 1418 1388 1466 1728
0 0 0 0 0 0 0 0 0 0 0 0 0 0 0 0 0 0 0 0 0 0 0 0 0 0 0 0 0 0 0 0 0 0 0 0 1652 712 895 1724 1635 1683 2122 2245 2021 1486 1913 2390 3033 3192 3203 3404 3614 3542 3336 3205 3274 2989 2782 2491 2388 2318 2453 2428 2401 2238 2203 2171 2011 1968 1775 1758 1630 2269 1562 1433 1783 1876 1819 1656 1594 1702 1583 1443 1444 1672
0 0 0 0 0 0 0 0 0 0 0 0 0 0 0 0 0 0 0 0 0 0 0 0 0 0 0 0 0 0 0 0 0 0 0 21 70 696 1276 1141 1427 1835 1923 1473 1710 1428 1504 2172 2776 3154 3032 2972 3467 3453 3391 3261 3001 2992 2747 2522 2259 2239 2309 2440 2454 2341 2174 2114 2108 1961 1990 1964 1779 1771 1732 1764 1526 1969 2007 1912 1662 1489 1640 1499 1220 1398
0 0 0 0 0 0 0 0 0 0 0 0 0 0 0 0 0 0 0 0 0 0 0 0 0 0 0 0 0 0 0 0 1 1 0 0 192 785 1054 1043 1724 1978 2235 1224 1128 1505 1594 2060 2636 3124 2869 2892 3108 3361 3044 2965 2598 2817 2743 2410 2344 2272 2198 2440 2474 2392 2141 2126 2026 1990 1928 1809 1868 1723 1756 1838 1806 1722 1944 1862 1993 1672 1653 1507 1321 1435
0 0 0 0 0 0 0 0 0 0 0 0 0 0 0 0 0 0 0 0 0 0 0 0 0 0 0 0 0 0 0 0 0 7 8 145 37 543 1014 1105 1794 2102 2373 1638 1224 1497 1826 2002 2514 2689 2720 2775 2950 2901 2779 2787 2575 2675 2626 2478 2346 2375 2285 2342 2418 2305 2299 2199 2129 2022 1909 1886 1749 1784 1541 1762 1682 1685 1588 1310 1174 1292 998 1040 1168 1229
0 0 0 0 0 0 0 0 0 0 0 0 0 0 0 0 0 0 0 0 0 0 0 0 0 0 0 0 0 0 0 4 11 0 6 135 281 845 1062 1304 1765 2060 2476 2208 1796 1749 2093 2052 2363 2601 2660 2682 2651 2753 2441 2154 2342 2630 2383 2439 2201 2534 2380 2314 2435 2377 2350 2252 2125 2242 2101 1960 1898 1670 1626 1578 1638 1643 1593 1435 1430 1072 871 820 1131 1433
0 0 0 0 0 0 0 0 0 0 0 0 0 0 0 0 0 0 0 0 0 0 0 0 0 0 0 0 0 0 0 0 2 3 98 328 759 956 1058 1228 1661 1910 2470 2490 2378 2308 2551 2659 2555 2704 2594 2433 2589 2745 2517 2443 2606 2629 2582 2510 2391 2630 2424 2375 2459 2240 2282 2283 2178 2061 2030 2068 1878 1711 1538 1659 1728 1620 1522 1462 1517 1703 1107 806 824 776
0 0 0 0 0 0 0 0 0 0 0 0 0 0 0 0 0 0 0 0 0 0 2 0 0 0 0 0 0 0 104 207 592 362 577 683 830 1045 1014 1018 1490 1952 2296 2692 2617 2570 2720 2896 2522 2427 2302 2356 2399 2430 2368 2399 2513 2600 2691 2524 2469 2605 2561 2436 2244 2334 2262 2207 2224 2147 2051 1878 1946 1814 1646 1614 1671 1609 1515 1717 1728 1617 1292 946 1079 1034
0 0 0 0 0 0 0 0 0 0 0 0 0 0 0 0 0 0 0 0 0 0 0 1 0 0 0 0 0 0 536 528 427 580 604 693 721 836 757 850 1053 1593 1971 2530 2677 2690 2652 2468 2326 2187 2030 2157 2143 2238 2337 2448 2556 2571 2631 2591 2529 2534 2610 2532 2365 2229 2353 2171 2186 2099 2088 1952 1886 1876 1707 1696 1633 1599 1478 1572 1782 1676 1316 729 599 686
0 0 0 0 0 0 0 0 0 0 0 0 0 0 0 0 0 0 0 0 0 0 0 0 0 0 0 0 0 71 101 257 614 502 699 482 493 602 522 662 694 1065 1812 2223 2528 2452 2419 2228 2175 2191 2161 2187 2185 2241 2255 2392 2480 2470 2625 2764 2620 2616 2547 2349 2295 2330 2202 2182 2169 2059 1963 1963 1860 1922 1873 1746 1702 1636 1553 1353 1436 1840 1873 1614 1507 1253
0 0 0 0 0 0 0 0 0 0 0 0 0 0 0 0 0 0 0 0 0 0 0 0 0 0 0 0 4 240 179 180 192 177 211 441 402 433 534 534 655 812 1158 1756 1961 2168 2261 2312 2500 2326 2359 2299 2206 2225 2295 2289 2242 2362 2591 2759 2733 2748 2586 2346 2166 2101 2062 1998 1932 1936 1993 1914 1847 1848 1875 1833 1687 1694 1574 1408 1457 1226 1670 1906 1414 1285
0 0 0 0 0 0 0 0 0 0 0 0 0 0 0 5 0 0 0 0 0 0 0 0 0 0 0 0 43 147 134 135 66 93 218 191 59 170 55 186 490 633 791 1135 1678 1704 1892 2288 2451 2439 2452 2303 2250 2283 2376 2366 2280 2430 2618 2816 2800 2699 2457 2384 2150 2086 1982 1937 1957 1986 2004 1922 1992 1949 1951 1842 1728 1719 1718 1634 1371 1312 1282 1165 1683 1651
0 0 0 0 0 0 0 0 0 0 0 0 0 0 0 0 0 0 0 0 0 0 0 0 0 0 0 0 3 30 64 160 67 2 7 0 0 0 6 0 188 337 579 1004 1175 1322 1458 1664 2235 2446 2369 2317 2305 2365 2415 2311 2296 2376 2507 2614 2650 2594 2502 2355 2254 2104 2030 1979 2004 2011 2041 2022 1995 2026 1898 1781 1710 1685 1683 1673 1605 1399 1220 1089 1231 1632
0 0 0 0 0 0 0 0 0 0 0 0 0 0 0 0 0 0 0 0 0 0 0 0 0 0 0 0 0 0 0 13 49 0 0 27 0 0 0 0 0 163 487 849 922 1129 1302 1674 1670 1938 2039 1978 1994 2044 2289 2350 2315 2417 2574 2468 2506 2398 2416 2269 2083 2083 2036 2052 2031 2050 2078 1983 1919 2046 1894 1828 1740 1708 1675 1721 1688 1561 1484 1281 1154 1624
0 0 0 0 0 0 0 0 0 0 0 0 0 0 0 0 1 3 3 0 0 0 0 0 0 0 0 0 1 14 0 23 4 41 51 0 0 0 0 0 0 138 514 625 832 888 904 1551 1841 1607 1644 1663 1654 1676 2071 2068 2171 2145 2192 1952 2150 2365 2216 2048 2026 1801 1952 1992 1979 1984 2015 2108 2072 2046 1904 1866 1836 1883 1669 1691 1689 1650 1561 1515 1325 1265
0 0 0 0 0 0 0 0 0 0 0 0 0 0 0 0 0 0 0 3 6 0 0 0 0 0 0 0 8 17 2 14 0 0 0 0 0 0 0 0 0 2 338 595 680 700 667 1457 1713 1764 1740 1818 1835 1735 1770 2090 2320 2187 2272 1938 2143 2078 2062 2097 2018 1986 1864 2068 2091 2066 2028 2085 2104 2068 1890 1850 1872 1860 1900 1732 1544 1586 1549 1591 1263 1109
0 0 0 0 0 0 0 0 0 0 0 0 0 0 0 0 0 0 0 0 0 3 0 0 0 0 0 0 4 5 4 0 0 0 0 0 0 0 0 5 0 6 385 610 631 673 694 1263 1881 1869 1958 1968 1963 1847 1871 1746 1710 1963 2020 1970 1959 2049 1974 2081 2118 2034 2068 2292 2328 2211 2244 2310 2126 2045 1983 1981 1909 1923 1908 1834 1705 1630 1520 1582 1484 1470
0 0 0 0 0 0 0 0 0 0 0 0 0 0 0 0 0 4 2 0 0 0 2 1 2 0 0 0 0 0 1 0 0 0 0 0 0 0 0 0 103 87 246 566 678 819 801 1055 1354 1433 1457 1345 1586 1626 1827 1944 1662 2028 1781 1868 1836 1845 1713 2044 2001 2559 2456 2241 2130 2137 2194 2244 2156 1993 1883 1837 1794 1926 1837 1942 1939 1785 1742 1570 1616 1427
0 0 0 0 0 0 0 0 0 0 0 0 0 0 0 0 0 2 1 0 4 0 2 9 10 0 0 0 0 0 0 0 0 3 2 0 0 0 0 0 0 7 132 339 592 703 775 836 814 1326 1388 1152 769 657 885 1308 1537 1442 1588 1500 1412 1504 1884 1996 2473 2594 2384 2310 2337 2132 2002 2037 1757 1519 1538 1738 1777 1724 1767 1774 1821 1613 1767 1690 1479 1458
0 0 0 0 0 0 0 0 0 0 0 0 0 0 0 0 0 0 2 7 9 7 14 1 4 0 0 4 2 0 0 0 0 0 0 0 0 0 0 0 5 8 0 92 425 538 860 930 792 614 672 586 872 959 1102 1191 907 1209 1216 1317 1311 1408 1403 1615 1634 1367 1582 1746 1616 1615 1774 1778 1686 1379 1276 1410 1612 1675 1646 1719 1835 1797 1816 1593 1562 1222
0 0 0 0 0 0 0 0 0 0 0 0 2 3 0 0 0 0 0 0 2 0 7 22 9 0 0 18 108 14 0 1 4 10 3 1 0 0 1 1 12 12 9 0 5 257 843 952 731 405 276 205 431 755 939 877 1059 1237 1164 1224 1086 1134 1239 1436 1237 1326 1288 1174 1321 1233 1486 1634 1509 1469 1452 1433 1433 1476 1479 1526 1542 1453 1632 1705 1554 1390
0 0 0 0 0 0 0 0 0 0 0 0 0 0 0 0 0 0 0 0 0 0 0 0 1 0 0 0 6 25 20 28 0 0 0 0 0 0 0 0 0 1 7 12 6 164 149 741 331 76 97 31 194 512 719 888 944 957 1081 1103 1103 711 909 955 1445 1258 1188 1501 1545 1486 1430 1666 1820 1842 1784 1620 1583 1547 1567 1560 1500 1411 1380 1494 1754 1659
0 0 0 0 0 0 0 0 0 0 0 0 0 0 0 0 0 0 0 0 0 0 0 0 0 0 0 0 0 1 1 0 0 0 0 0 0 0 0 0 0 0 0 0 3 39 248 14 234 85 20 10 9 46 31 236 743 887 922 842 938 721 1082 1128 1036 1304 1214 1094 1182 1323 1496 1695 1726 1961 1936 1715 1648 1683 1580 1547 1684 1545 1528 1549 1554 1470
0 0 0 0 0 0 0 0 0 0 0 0 0 0 0 0 0 0 0 0 0 0 0 0 0 2 1 1 12 20 0 0 0 0 0 0 0 0 0 0 0 0 0 0 0 0 96 338 325 240 208 68 3 13 0 45 62 374 711 620 703 673 519 340 408 462 880 817 1104 1118 1421 1729 1729 1712 1733 1635 1604 1722 1715 1612 1546 1572 1600 1540 1597 1559
0 0 0 0 0 0 0 0 0 0 0 0 0 0 0 0 0 0 0 0 0 0 0 0 2 20 24 20 1 6 0 1 0 0 0 0 0 0 0 0 0 0 0 0 0 0 0 0 9 22 8 0 61 26 1 0 47 81 77 92 92 130 48 121 203 99 32 816 1127 1083 1259 1433 1622 1610 1577 1448 1416 1445 1470 1445 1536 1637 1708 1737 1603 1539
0 0 0 0 0 0 0 0 0 0 0 0 0 0 0 0 0 0 0 0 0 3 9 17 6 8 9 2 0 0 1 7 10 13 10 3 0 0 0 0 0 0 0 0 0 0 0 0 0 0 0 22 50 64 1 4 26 104 90 65 42 60 11 21 55 44 61 286 668 948 918 1148 1647 1627 1532 1455 1563 1573 1446 1499 1510 1510 1587 1576 1578 1585
0 0 0 0 0 0 0 0 0 0 0 0 0 0 0 0 0 1 15 10 31 36 5 33 21 8 2 11 0 0 1 0 2 12 17 13 4 0 1 2 0 0 0 0 0 0 0 0 4 3 1 0 170 164 77 128 41 41 84 18 0 0 1 0 0 25 116 157 158 527 944 1002 1069 1646 1526 1546 1519 1359 1370 1181 1331 1360 1481 1591 1581 1618
0 0 0 0 0 0 0 0 0 0 0 0 0 0 0 0 2 5 6 10 40 50 54 52 15 16 33 0 0 0 0 0 0 0 0 0 0 1 12 9 3 2 1 0 0 0 2 1 9 16 14 1 9 101 357 115 47 25 0 0 18 24 4 7 0 1 5 26 16 144 579 790 919 816 1157 1280 1390 1405 1342 1393 1242 1398 1445 1365 1475 1550
0 0 0 0 0 0 0 0 0 0 0 0 0 5 0 0 0 1 1 0 16 25 42 14 23 20 1 0 2 0 0 0 0 0 0 0 0 0 0 3 0 3 3 2 0 5 13 14 10 17 16 8 2 89 191 272 86 33 175 199 188 38 45 10 1 0 0 0 0 2 129 134 273 687 786 660 1014 968 1153 1180 1605 1685 1532 1524 1502 1288
0 0 0 0 0 0 0 0 0 0 0 0 18 0 0 1 4 12 12 30 30 25 20 9 0 0 0 0 2 5 0 0 6 7 0 0 0 0 0 0 0 0 3 12 7 1 2 15 20 20 17 12 1 186 129 354 116 21 102 207 270 136 98 33 0 0 0 0 0 1 22 32 41 85 253 549 524 579 717 736 838 1458 1634 1538 1620 1357
0 0 0 0 0 0 0 0 0 0 0 9 0 0 0 0 6 11 20 4 20 16 3 0 0 0 0 0 0 0 0 0 0 10 37 32 9 46 51 3 0 0 0 0 1 5 1 0 16 20 19 10 4 74 397 213 123 442 341 289 155 42 203 100 6 36 1 0 0 0 0 10 16 9 16 78 214 414 431 589 802 689 799 1414 1551 1503
0 0 0 0 0 0 0 0 0 0 0 0 0 0 10 23 20 8 1 0 0 2 2 0 0 0 0 0 0 0 0 0 0 16 91 84 90 171 71 0 3 0 0 0 0 1 1 0 7 13 19 14 7 158 323 327 482 670 188 187 218 57 12 0 0 0 0 0 0 0 1 1 0 0 0 0 4 74 228 330 393 476 510 514 748 1222
0 0 0 0 0 0 0 0 0 0 0 0 0 6 0 0 8 3 0 0 0 0 0 0 0 0 0 0 0 0 0 0 0 2 38 102 254 213 89 50 8 0 0 0 0 0 0 0 0 10 4 6 8 194 299 291 339 549 479 280 227 63 1 0 0 0 0 0 0 0 0 1 7 7 0 0 0 0 1 4 13 120 382 391 438 471
0 0 0 0 0 0 0 0 0 0 0 0 0 0 0 0 6 4 1 0 0 0 0 0 0 0 0 0 0 0 0 0 0 0 26 95 214 122 302 220 160 16 0 0 0 0 0 0 0 1 0 1 1 185 293 310 372 888 660 386 259 149 64 4 0 0 0 0 0 0 6 4 1 0 0 0 0 0 0 0 0 0 0 5 138 304
0 0 0 0 0 0 0 0 0 0 0 0 0 0 0 0 5 4 0 0 0 0 0 0 0 0 0 0 0 0 0 0 0 0 8 271 171 189 332 382 250 180 44 0 0 0 0 0 0 0 0 1 7 165 315 344 284 778 488 307 137 77 55 4 0 1 0 0 0 2 9 3 6 2 0 0 0 0 0 0 0 0 0 0 0 0
3 0 0 0 0 0 0 0 0 0 0 0 0 0 0 0 4 0 0 0 0 0 4 3 0 0 0 0 0 0 0 0 0 0 0 28 56 54 26 220 383 260 117 51 13 0 0 0 0 0 0 0 42 87 303 282 155 253 260 215 221 62 12 0 1 0 9 13 9 0 0 0 0 0 0 0 0 0 0 0 0 0 0 0 0 0
0 0 0 0 0 0 0 0 0 0 0 0 0 0 0 0 0 0 0 0 0 0 0 0 0 0 0 0 0 0 0 0 0 0 0 7 17 39 41 245 176 210 150 76 56 52 0 0 0 0 0 0 27 80 171 62 286 174 113 216 173 135 6 5 3 4 3 11 33 30 17 10 0 0 0 0 0 0 0 0 0 0 0 0 0 0
0 0 0 0 0 0 0 0 0 0 0 0 0 0 0 0 0 0 0 0 0 0 0 0 0 0 0 0 0 0 0 0 0 0 0 0 7 18 55 56 27 31 7 93 56 84 25 0 0 0 0 0 0 69 130 174 88 140 113 82 101 51 74 30 20 12 19 19 26 23 30 33 36 18 2 0 0 0 0 0 0 0 0 0 0 0
0 0 0 0 0 0 0 0 0 0 0 0 0 0 0 0 0 0 0 0 0 0 0 0 1 4 0 0 0 0 4 0 2 0 0 0 0 0 48 117 112 61 0 16 30 99 28 10 0 0 0 0 0 38 59 101 84 17 2 1 10 9 12 8 10 6 24 32 45 57 67 62 93 103 43 18 2 0 0 0 0 0 0 0 0 0
0 0 0 0 0 0 0 0 0 0 0 0 0 0 0 0 1 1 1 0 0 2 5 2 3 0 0 5 3 1 8 10 7 12 4 0 0 0 3 88 130 30 4 12 17 10 71 27 0 0 0 0 0 0 4 39 131 33 1 0 2 2 0 0 0 0 19 85 95 77 82 119 191 78 52 58 30 1 0 0 0 0 0 0 0 0
2 0 0 0 0 0 0 0 0 0 0 0 1 1 0 1 4 2 2 4 4 0 0 2 2 0 0 1 0 10 6 2 1 6 4 0 0 0 0 17 86 60 32 36 29 9 67 26 21 0 0 0 0 0 2 2 74 4 6 17 0 0 0 0 0 10 100 132 183 160 158 89 32 23 26 93 75 36 2 0 0 0 0 0 0 0
0 0 0 0 0 0 0 0 0 0 2 4 1 3 6 1 3 2 4 3 0 1 1 2 2 0 0 0 1 1 4 4 7 1 0 2 0 4 0 0 11 54 46 45 16 0 1 6 24 6 0 0 0 0 0 8 9 9 4 4 3 2 2 1 0 0 0 0 0 6 34 21 6 1 1 5 11 30 12 0 0 0 0 0 0 0
0 0 0 0 0 0 0 0 0 0 1 4 2 0 1 0 0 0 0 0 0 0 0 0 0 5 3 2 0 0 4 3 6 1 0 0 0 2 0 0 4 41 70 67 20 0 0 2 0 4 2 0 0 0 0 8 21 14 15 18 0 0 0 0 0 0 0 0 0 0 0 0 0 0 0 16 6 0 0 0 0 0 0 0 0 0
0 0 0 0 3 2 0 0 0 1 2 1 0 0 0 0 0 1 0 0 0 0 0 0 0 0 0 0 0 0 0 2 0 4 6 0 0 3 7 0 0 22 64 70 30 2 0 2 0 0 0 1 0 0 0 0 0 0 1 1 0 0 0 0 0 0 0 0 0 0 0 0 0 0 0 0 0 0 0 0 0 0 0 0 0 0
0 0 1 4 1 0 1 2 0 0 0 0 0 0 0 0 3 0 0 1 6 7 3 0 0 3 1 0 0 0 0 2 4 3 4 9 0 0 2 1 0 8 38 72 49 6 0 0 1 0 0 0 0 0 0 0 0 0 0 1 4 10 2 0 0 0 0 2 0 0 0 0 0 0 0 0 0 0 0 0 0 0 0 0 0 0
1 3 1 2 0 0 2 2 1 1 0 0 0 0 2 1 2 1 0 0 1 0 1 0 0 0 1 1 1 1 0 3 1 5 3 0 2 2 3 0 2 0 11 24 59 7 0 0 0 0 0 0 0 0 0 0 0 0 0 0 0 0 1 0 0 0 0 0 0 0 0 0 0 0 0 0 0 0 0 0 0 0 0 0 0 0
0 0 0 1 2 1 0 0 1 2 0 1 0 0 3 0 0 0 1 1 0 5 3 2 0 3 4 5 1 1 0 0 5 6 6 6 1 5 0 0 2 0 0 3 83 31 0 0 0 0 0 0 0 0 0 0 0 0 0 0 0 0 0 0 0 0 0 0 0 0 0 0 0 0 0 0 0 0 0 0 0 0 0 0 0 0
Wind_Speed
nan nan nan nan nan nan nan nan nan nan nan nan nan nan nan nan nan nan nan nan nan nan nan nan nan nan nan nan nan nan nan nan nan nan nan nan nan nan 22 22 23 23 23 22 21 22 26 29 29 28 30 30 31 33 33 32 28 23 21 22 22 20 20 17 16 14 14 14 14 13 14 14 14 12 13 14 14 15 14 15 16 17 16 15 15 16
nan nan nan nan nan nan nan nan nan nan nan nan nan nan nan nan nan nan nan nan nan nan nan nan nan nan nan nan nan nan nan nan nan nan nan nan nan nan 26 22 24 24 25 25 23 23 26 29 31 30 29 30 32 33 34 33 30 24 22 22 21 21 21 20 18 15 13 13 13 14 14 14 14 13 13 13 14 14 15 16 15 15 16 15 14 14
nan nan nan nan nan nan nan nan nan nan nan nan nan nan nan nan nan nan nan nan nan nan nan nan nan nan nan nan nan nan nan nan nan nan nan nan nan nan 22 21 22 24 27 27 23 23 25 28 31 30 29 29 29 33 35 33 31 26 22 21 21 21 22 21 19 17 16 15 13 14 14 15 14 13 12 12 12 13 14 16 16 15 14 14 14 13
nan nan nan nan nan nan nan nan nan nan nan nan nan nan nan nan nan nan nan nan nan nan nan nan nan nan nan nan nan nan nan nan nan nan nan nan nan 17 20 22 23 25 27 27 25 22 24 26 28 27 27 28 28 31 33 33 31 26 22 21 21 21 22 23 22 19 17 17 17 15 14 14 14 15 14 15 11 11 12 13 13 14 13 12 12 12
nan nan nan nan nan nan nan nan nan nan nan nan nan nan nan nan nan nan nan nan nan nan nan nan nan nan nan nan nan nan nan nan nan nan nan nan 25 24 22 25 27 26 25 23 24 23 24 25 25 23 23 27 27 29 32 32 30 25 26 23 23 22 23 23 24 21 18 17 16 16 16 15 16 15 17 14 13 12 11 11 12 12 12 11 10 10
nan nan nan nan nan nan nan nan nan nan nan nan nan nan nan nan nan nan nan nan nan nan nan nan nan nan nan nan nan nan nan nan nan nan nan nan 33 24 25 29 27 27 26 21 21 22 22 23 22 20 20 23 25 27 30 31 29 28 27 25 25 24 23 23 25 24 20 17 17 18 16 17 17 18 19 20 18 16 15 13 12 12 12 11 10 10
nan nan nan nan nan nan nan nan nan nan nan nan nan nan nan nan nan nan nan nan nan nan nan nan nan nan nan nan nan nan nan nan nan nan nan nan nan 27 26 27 26 25 25 22 21 20 21 22 19 17 16 18 22 25 29 31 29 27 29 28 28 27 25 23 24 26 22 20 18 20 19 17 17 18 17 17 18 17 17 16 15 13 13 13 12 9
nan nan nan nan nan nan nan nan nan nan nan nan nan nan nan nan nan nan nan nan nan nan nan nan nan nan nan nan nan nan nan nan nan nan nan nan 33 28 25 26 26 23 24 22 22 22 22 24 20 17 16 16 19 24 27 30 30 28 29 32 30 27 26 24 24 26 24 22 21 22 21 20 20 20 19 19 18 18 18 19 18 15 13 12 14 13
nan nan nan nan nan nan nan nan nan nan nan nan nan nan nan nan nan nan nan nan nan nan nan nan nan nan nan nan nan nan nan nan nan nan nan 31 nan 24 24 25 25 23 22 21 23 24 24 25 23 20 18 17 20 23 26 28 29 28 28 31 30 28 27 27 28 26 25 23 24 24 23 24 25 24 22 21 19 19 20 20 18 17 14 11 11 14
nan nan nan nan nan nan nan nan nan nan nan nan nan nan nan nan nan nan nan nan nan nan nan nan nan nan nan nan nan nan nan nan nan nan nan 31 28 24 24 24 24 23 22 21 23 26 28 27 26 24 22 21 22 25 27 28 29 27 28 30 32 30 29 29 30 28 27 26 26 26 26 28 28 29 25 22 21 20 20 21 21 19 17 14 13 13
nan nan nan nan nan nan nan nan nan nan nan nan nan nan nan nan nan nan nan nan nan nan nan nan nan nan nan nan nan nan nan nan nan nan nan 22 24 25 24 23 24 24 22 22 23 26 30 30 28 27 24 24 27 29 29 30 29 28 28 30 32 31 30 31 31 30 29 28 28 27 28 29 30 33 30 23 21 21 20 19 20 19 18 15 12 11
nan nan nan nan nan nan nan nan nan nan nan nan nan nan nan nan nan nan nan nan nan nan nan nan nan nan nan nan nan nan 37 43 38 32 28 25 25 25 22 23 25 25 23 22 23 26 29 29 29 28 26 26 29 32 31 30 30 30 29 30 32 31 31 32 32 31 30 29 29 28 29 29 28 31 29 25 20 20 21 20 19 18 18 16 14 11
nan nan nan nan nan nan nan nan nan nan nan nan nan nan nan nan nan nan nan nan nan nan nan nan nan nan nan nan nan nan 37 42 41 37 33 30 28 27 24 23 24 25 25 24 25 25 27 28 29 30 29 29 29 29 31 33 33 32 31 32 33 32 32 33 33 32 32 31 30 29 28 28 26 26 27 24 17 17 18 19 19 19 21 19 16 14
nan nan nan nan nan nan nan nan nan nan nan nan nan nan nan nan nan nan nan nan nan nan nan nan nan nan nan nan nan nan 43 42 41 40 38 35 31 29 27 27 25 25 27 27 26 27 28 29 29 32 32 31 30 29 30 33 35 34 34 34 33 32 33 34 32 31 32 32 31 30 28 26 25 24 24 22 18 16 16 18 20 19 19 20 20 18
nan nan nan nan nan nan nan nan nan nan nan nan nan nan nan nan nan nan nan nan nan nan nan nan nan nan nan nan nan 44 48 47 43 40 39 38 35 33 32 31 28 27 27 28 29 28 28 28 30 32 33 34 32 30 30 32 35 36 36 35 33 33 33 33 31 30 31 32 32 31 28 26 25 25 24 22 21 18 16 16 18 18 17 17 18 18
nan nan nan nan nan nan nan nan nan nan nan nan nan nan nan nan nan nan nan nan nan nan nan nan nan nan nan nan nan 48 48 47 nan nan 41 42 nan 39 nan 33 30 29 27 28 27 28 29 30 30 32 34 35 34 32 32 32 34 37 38 37 34 33 33 33 33 31 30 31 32 31 29 26 25 25 25 23 23 22 20 17 16 17 16 16 16 17
nan nan nan nan nan nan nan nan nan nan nan nan nan nan nan nan nan nan nan nan nan nan nan nan nan nan nan nan nan nan nan 47 nan nan nan nan nan nan nan nan 33 30 30 29 28 27 28 30 31 33 35 36 36 35 35 34 35 37 39 38 35 34 36 37 36 34 32 31 31 30 29 28 27 26 25 25 26 26 25 22 17 15 15 15 16 17
nan nan nan nan nan nan nan nan nan nan nan nan nan nan nan nan nan nan nan nan nan nan nan nan nan nan nan nan nan nan nan nan nan nan nan nan nan nan nan nan nan 34 32 32 31 30 29 30 31 33 35 38 42 41 39 37 37 38 41 42 36 36 35 36 34 33 33 33 32 28 28 29 28 27 25 24 25 26 25 24 19 16 15 15 16 17
nan nan nan nan nan nan nan nan nan nan nan nan nan nan nan nan nan nan nan nan nan nan nan nan nan nan nan nan nan nan nan nan nan nan nan nan nan nan nan nan nan 39 36 34 34 33 32 31 31 31 33 36 37 38 36 37 39 39 41 42 39 38 36 33 33 34 35 37 35 30 28 29 27 26 26 24 24 25 23 22 19 16 14 13 15 16
nan nan nan nan nan nan nan nan nan nan nan nan nan nan nan nan nan nan nan nan nan nan nan nan nan nan nan nan nan nan nan nan nan nan nan nan nan nan nan nan nan nan 41 38 37 36 35 35 35 36 35 33 35 36 37 37 38 39 39 40 40 39 37 35 34 34 35 37 37 33 31 29 25 24 26 25 24 24 22 20 17 14 14 13 14 15
nan nan nan nan nan nan nan nan nan nan nan nan nan nan nan nan nan nan nan nan nan nan nan nan nan nan nan nan nan nan nan nan nan nan nan nan nan nan nan nan nan nan 44 43 41 39 38 37 38 39 39 39 38 37 38 38 38 40 40 39 39 40 38 38 36 33 31 34 35 35 33 29 25 25 26 24 24 24 23 21 17 14 14 14 14 15
nan nan nan nan nan nan nan nan nan nan nan nan nan nan nan nan nan nan nan nan nan nan nan nan nan nan nan nan nan nan nan nan nan nan nan nan nan nan nan nan 47 nan 46 46 44 42 40 39 38 40 40 42 46 45 43 41 40 42 42 42 40 39 40 40 36 32 34 35 35 37 35 30 28 26 26 25 25 22 22 21 18 16 15 15 16 15
nan nan nan nan nan nan nan nan nan nan nan nan nan nan nan nan nan nan nan nan nan nan nan nan nan nan nan nan nan nan nan nan nan nan nan nan nan nan nan nan nan nan 46 48 46 45 43 41 40 41 42 42 44 44 42 44 49 47 45 49 46 37 38 38 35 34 35 34 37 39 37 34 30 26 26 26 24 22 20 20 19 17 16 15 16 16
nan nan nan nan nan nan nan nan nan nan nan nan nan nan nan nan nan nan nan nan nan nan nan nan nan nan nan nan nan nan nan nan nan nan nan nan nan nan nan nan nan nan nan nan 50 48 46 46 45 44 45 46 44 44 42 38 42 45 48 50 45 41 42 41 42 45 41 38 37 36 37 37 33 28 26 25 26 23 20 19 18 18 16 15 15 15
nan nan nan nan nan nan nan nan nan nan nan nan nan nan nan nan nan nan nan nan nan nan nan nan nan nan nan nan 60 nan nan nan nan nan nan nan nan nan nan nan nan nan nan nan nan 47 48 47 47 47 47 47 44 45 44 40 38 39 39 41 44 46 45 45 44 39 38 35 28 27 32 34 33 31 29 28 29 26 23 20 19 18 15 13 13 13
nan nan nan nan nan nan nan nan nan nan nan nan nan nan nan nan nan nan nan nan nan nan nan nan nan nan nan nan nan nan nan nan nan nan nan nan nan nan nan nan nan nan nan nan nan 44 45 46 48 nan nan nan 46 43 44 43 43 44 45 44 45 48 48 45 42 41 35 35 30 28 31 35 35 34 31 30 30 27 24 22 21 20 17 14 11 11
nan nan nan nan nan nan nan nan nan nan nan nan nan nan nan nan nan nan nan nan nan nan nan nan nan nan nan nan nan nan nan nan nan nan nan nan nan nan nan nan nan nan nan nan nan nan 44 nan 43 nan nan nan nan nan nan 44 45 47 49 50 50 50 48 47 45 47 42 42 41 38 38 40 39 37 35 34 32 28 25 22 21 20 18 14 10 9
nan nan nan nan nan nan nan nan nan nan nan nan nan nan nan nan nan nan nan nan nan nan nan nan nan nan nan nan nan nan nan nan nan nan nan nan nan nan nan nan nan nan nan nan nan nan nan 51 47 47 49 nan nan nan nan nan nan 49 52 55 55 52 53 50 48 51 50 48 48 44 43 45 46 42 38 36 33 31 28 25 23 22 20 15 12 9
nan nan nan nan nan nan nan nan nan nan nan nan nan nan nan nan nan nan nan nan nan nan nan nan nan nan nan nan nan nan nan nan nan nan nan nan nan nan nan nan nan nan nan nan nan nan nan nan nan nan nan nan nan nan nan nan nan nan nan nan nan 56 nan 52 52 nan nan 50 49 47 47 49 50 47 42 38 36 33 30 26 24 24 23 19 14 11
nan nan nan nan nan nan nan nan nan nan nan nan nan nan nan nan nan nan nan nan nan nan nan nan nan nan nan nan nan nan nan nan nan nan nan nan nan nan nan nan nan nan nan nan nan nan nan nan nan nan nan nan nan nan nan nan nan 46 nan nan nan nan nan nan nan nan nan 51 49 47 47 52 54 50 47 43 39 36 33 29 27 26 24 20 16 13
nan nan nan nan nan nan nan nan nan nan nan nan nan nan nan nan nan nan nan nan nan nan nan nan nan nan nan nan nan nan nan nan nan nan nan nan nan nan nan nan nan nan nan nan nan nan nan nan nan nan nan nan 49 45 nan 41 nan nan nan nan nan nan nan nan nan nan 50 50 49 49 50 55 56 54 51 48 44 41 38 33 31 30 27 23 19 16
nan nan nan nan nan nan nan nan nan nan nan nan nan nan nan nan nan nan nan nan nan nan nan nan nan nan nan nan nan nan nan nan nan nan nan nan nan nan nan nan nan nan nan nan nan nan nan nan nan nan nan nan nan 46 43 41 nan nan nan nan nan nan nan nan nan nan nan nan nan 50 53 57 57 56 55 52 48 44 42 38 35 32 29 26 22 19
nan nan nan nan nan nan nan nan nan nan nan nan nan nan nan nan nan nan nan nan nan nan nan nan nan nan nan nan nan nan nan nan nan nan nan nan nan nan nan nan nan nan nan nan nan nan nan nan nan nan nan nan nan nan 46 45 nan nan 45 50 53 nan nan nan nan nan nan nan nan nan 56 60 62 60 57 54 52 49 47 44 40 37 33 29 26 22
nan nan nan nan nan nan nan nan nan nan nan nan nan nan nan nan nan nan nan nan nan nan nan nan nan nan nan nan nan nan nan nan nan nan nan nan nan nan nan nan nan nan nan nan nan nan nan nan nan nan nan nan nan 55 50 47 45 nan 45 50 50 51 nan nan nan nan nan nan nan nan nan nan nan nan 60 56 53 50 50 47 45 41 38 35 29 26
nan nan nan nan nan nan nan nan nan nan nan nan nan nan nan nan nan nan nan nan nan nan nan nan nan nan nan nan nan nan nan nan nan nan nan nan nan nan nan nan nan nan nan nan nan nan nan nan nan nan nan nan nan nan 54 48 44 46 49 51 49 nan 49 nan nan nan nan nan nan nan nan nan nan nan nan nan 55 53 51 49 45 42 40 38 34 30
nan nan nan nan nan nan nan nan nan nan nan nan nan nan nan nan nan nan nan nan nan nan nan nan nan nan nan nan nan nan nan nan nan nan nan nan nan 44 nan nan nan nan nan nan nan nan nan nan nan nan nan nan nan 61 56 49 47 50 49 48 49 nan nan nan nan nan nan nan nan nan nan nan nan nan nan nan nan nan 53 50 48 45 43 40 37 34
nan nan nan nan nan nan nan nan nan nan nan nan nan nan nan nan nan nan nan nan nan nan nan nan nan nan nan nan nan nan nan nan nan nan nan 29 40 44 nan nan nan nan nan nan nan nan nan nan nan nan nan nan nan 61 62 49 40 43 48 48 49 nan nan nan nan nan nan nan nan nan nan nan nan nan nan nan nan nan nan nan nan 48 46 43 40 38
nan nan nan nan nan nan nan nan nan nan nan nan nan nan nan nan nan nan nan nan nan nan nan nan nan nan nan nan nan nan nan nan nan nan nan nan 41 38 41 42 39 nan nan nan nan nan nan nan nan nan nan nan nan 57 59 56 39 45 48 48 48 49 nan nan nan nan nan nan nan nan nan nan nan nan nan nan nan nan nan nan nan nan nan nan 44 42
nan nan nan nan nan nan nan nan nan nan nan nan nan nan nan nan nan nan nan nan nan nan nan nan nan nan nan nan nan nan nan nan nan nan nan 41 41 34 32 36 39 35 nan nan nan nan nan nan nan nan nan nan nan 54 57 59 47 44 48 50 49 nan nan nan nan nan nan nan nan nan nan nan nan nan nan nan nan nan nan nan nan nan nan nan nan nan
nan nan nan nan nan nan nan nan nan nan nan nan nan nan nan nan nan nan nan nan nan nan nan nan nan nan nan nan nan nan nan nan nan nan nan nan nan nan nan 29 34 39 36 nan nan nan nan nan nan nan nan nan nan nan 54 58 56 52 51 50 48 nan nan nan nan nan nan nan nan nan nan nan nan nan nan nan nan nan nan nan nan nan nan nan nan nan
nan nan nan nan nan nan nan nan nan nan nan nan nan nan nan nan nan nan nan nan nan nan nan nan nan nan nan nan nan nan nan nan nan nan nan nan nan nan nan 25 28 36 39 nan nan nan nan nan nan nan nan nan nan nan 53 nan 57 55 54 51 48 48 nan nan nan nan nan nan nan nan nan nan nan nan nan nan nan nan nan nan nan nan nan nan nan nan
nan nan nan nan nan nan nan nan nan nan nan nan nan nan nan nan nan nan nan nan nan nan nan nan nan nan nan nan nan nan nan nan nan nan nan nan nan nan nan nan nan nan nan nan nan nan nan nan nan nan nan nan nan nan 53 55 nan 55 55 nan 53 nan nan nan nan nan nan nan nan nan nan nan nan nan nan nan nan nan nan nan nan nan nan nan nan nan
nan nan nan nan nan nan nan nan nan nan nan nan nan nan nan nan nan nan nan nan nan nan nan nan nan nan nan nan nan nan nan nan nan nan nan nan nan nan nan 22 19 nan nan nan nan nan nan nan nan nan nan nan nan nan nan 54 nan nan nan nan nan nan nan nan nan nan nan nan nan nan nan nan nan 39 nan nan nan nan nan nan nan nan nan nan nan nan
nan nan nan nan nan nan nan nan nan nan nan nan nan nan nan nan nan nan nan nan nan nan nan nan nan nan nan nan nan nan nan nan nan nan nan nan nan nan nan nan 18 nan nan nan nan nan nan nan nan nan nan nan nan nan nan nan 56 nan nan nan nan nan nan nan nan nan nan nan nan nan nan 41 40 nan nan nan nan nan nan nan nan nan nan nan nan nan
nan nan nan nan nan nan nan nan nan nan nan nan nan nan nan nan nan nan nan nan nan nan nan nan nan nan nan nan nan nan nan nan nan nan nan nan nan nan nan nan nan nan nan nan nan nan nan nan nan nan nan nan nan nan nan nan nan nan nan nan nan nan nan nan nan nan nan 45 44 43 42 nan nan nan nan nan nan nan nan nan nan nan nan nan nan nan
nan nan nan nan nan nan nan nan nan nan nan nan nan nan nan nan nan nan nan nan nan nan nan nan nan nan nan nan nan nan nan nan nan nan nan nan nan nan nan nan nan nan nan nan nan nan nan nan nan nan nan nan nan nan nan nan nan nan nan nan nan nan nan nan nan nan nan nan nan nan nan nan nan nan nan nan nan nan nan nan nan nan nan nan nan nan
nan nan nan nan nan nan nan nan nan nan nan nan nan nan nan nan nan nan nan nan nan nan nan nan nan nan nan nan nan nan nan nan nan nan nan nan nan nan nan nan nan nan nan nan nan nan nan nan nan nan nan nan nan nan nan nan nan nan nan nan nan nan nan nan nan nan nan nan nan nan nan nan nan nan nan nan nan nan nan nan nan nan nan nan nan nan
nan nan nan nan nan nan nan nan nan nan nan nan nan nan nan nan nan nan nan nan nan nan nan nan nan nan nan nan nan nan nan nan nan nan nan nan nan nan nan nan nan nan nan nan nan nan nan nan nan nan nan nan nan nan nan nan nan nan nan nan nan nan nan nan nan nan nan nan nan nan nan nan nan nan nan nan nan nan nan nan nan nan nan nan nan nan
nan nan nan nan nan nan nan nan nan nan nan nan nan nan nan nan nan nan nan nan nan nan nan nan nan nan nan nan nan nan nan nan nan nan nan nan nan nan nan nan nan nan nan nan nan nan nan nan nan nan nan nan nan nan nan nan nan nan nan nan nan nan nan nan nan nan nan nan nan nan nan nan nan nan nan nan nan nan nan nan nan nan nan nan nan nan
nan nan nan nan nan nan nan nan nan nan nan nan nan nan nan nan nan nan nan nan nan nan nan nan nan nan nan nan nan nan nan nan nan nan nan nan nan nan nan nan nan nan nan nan nan nan nan nan nan nan nan nan nan nan nan nan nan nan nan nan nan nan nan nan nan nan nan nan nan nan nan nan nan nan nan nan nan nan nan nan nan nan nan nan nan nan
nan nan nan nan nan nan nan nan nan nan nan nan nan nan nan nan nan nan nan nan nan nan nan nan nan nan nan nan nan nan nan nan nan nan nan nan nan nan nan nan nan nan nan nan nan nan nan nan nan nan nan nan nan nan nan nan nan nan nan nan nan nan nan nan nan nan nan nan nan nan nan nan nan nan nan nan nan nan nan nan nan nan nan nan nan nan
Wind_Direction
nan nan nan nan nan nan nan nan nan nan nan nan nan nan nan nan nan nan nan nan nan nan nan nan nan nan nan nan nan nan nan nan nan nan nan nan nan nan 274 266 262 255 252 261 269 277 297 303 305 308 313 317 317 319 326 331 336 344 345 346 351 351 349 349 351 354 357 1 1 354 350 343 333 332 322 325 325 320 319 325 319 315 311 314 314 306
nan nan nan nan nan nan nan nan nan nan nan nan nan nan nan nan nan nan nan nan nan nan nan nan nan nan nan nan nan nan nan nan nan nan nan nan nan nan 278 265 259 259 258 261 266 269 286 293 300 303 307 316 319 318 324 331 331 338 344 345 346 350 349 352 351 350 353 3 5 358 358 353 340 330 323 322 317 318 323 329 320 314 311 314 314 310
nan nan nan nan nan nan nan nan nan nan nan nan nan nan nan nan nan nan nan nan nan nan nan nan nan nan nan nan nan nan nan nan nan nan nan nan nan nan 272 264 255 252 258 260 262 269 276 289 296 299 305 313 317 315 321 326 325 329 339 342 344 347 352 352 348 345 351 355 359 3 1 358 349 340 328 310 312 318 323 329 325 317 312 313 312 315
nan nan nan nan nan nan nan nan nan nan nan nan nan nan nan nan nan nan nan nan nan nan nan nan nan nan nan nan nan nan nan nan nan nan nan nan nan 274 277 272 260 249 254 260 262 270 276 283 289 295 302 308 311 311 316 322 323 322 330 339 341 341 346 347 348 346 344 346 349 355 355 351 351 346 335 315 321 316 326 332 328 320 315 314 311 318
nan nan nan nan nan nan nan nan nan nan nan nan nan nan nan nan nan nan nan nan nan nan nan nan nan nan nan nan nan nan nan nan nan nan nan nan 287 283 280 276 266 260 259 260 263 272 282 287 288 289 295 301 307 310 312 318 320 316 325 333 340 335 337 339 338 340 335 335 342 345 345 342 341 344 337 325 325 316 318 326 329 326 320 316 308 311
nan nan nan nan nan nan nan nan nan nan nan nan nan nan nan nan nan nan nan nan nan nan nan nan nan nan nan nan nan nan nan nan nan nan nan nan 285 280 275 273 270 267 269 267 263 264 281 289 286 281 290 300 302 306 307 310 316 316 317 325 333 332 333 333 333 332 326 325 333 334 337 338 341 343 344 350 346 328 325 332 329 329 323 318 309 299
nan nan nan nan nan nan nan nan nan nan nan nan nan nan nan nan nan nan nan nan nan nan nan nan nan nan nan nan nan nan nan nan nan nan nan nan nan 271 269 267 264 261 265 270 267 262 273 283 280 272 279 297 298 297 299 302 311 313 314 319 327 327 327 329 327 326 320 321 327 333 336 338 343 345 343 345 349 343 334 328 332 332 329 323 312 305
nan nan nan nan nan nan nan nan nan nan nan nan nan nan nan nan nan nan nan nan nan nan nan nan nan nan nan nan nan nan nan nan nan nan nan nan 269 266 261 258 257 257 258 261 263 261 264 273 271 262 268 283 285 287 295 298 304 312 311 316 322 322 322 321 321 322 320 318 323 328 334 337 340 339 334 334 340 346 343 336 329 330 326 327 317 310
nan nan nan nan nan nan nan nan nan nan nan nan nan nan nan nan nan nan nan nan nan nan nan nan nan nan nan nan nan nan nan nan nan nan nan 268 nan 260 256 252 252 254 255 254 254 256 263 272 273 262 259 268 275 283 289 290 298 305 309 311 317 318 317 315 319 319 318 316 320 325 331 339 342 339 330 325 331 338 341 346 336 333 327 310 317 320
nan nan nan nan nan nan nan nan nan nan nan nan nan nan nan nan nan nan nan nan nan nan nan nan nan nan nan nan nan nan nan nan nan nan nan 262 270 263 254 248 248 252 255 254 250 249 257 265 270 265 258 262 269 277 283 287 292 298 304 309 313 313 310 310 313 314 316 316 318 323 329 337 342 345 336 324 327 335 336 343 343 344 334 328 331 322
nan nan nan nan nan nan nan nan nan nan nan nan nan nan nan nan nan nan nan nan nan nan nan nan nan nan nan nan nan nan nan nan nan nan nan 264 263 261 258 252 251 250 249 252 248 246 250 255 261 262 258 260 267 270 277 282 287 291 297 304 307 307 303 305 308 312 314 316 316 320 328 335 340 346 348 336 326 326 329 334 345 346 340 334 323 315
nan nan nan nan nan nan nan nan nan nan nan nan nan nan nan nan nan nan nan nan nan nan nan nan nan nan nan nan nan nan 280 286 290 290 284 278 272 268 262 256 255 253 247 246 246 244 246 250 251 252 252 256 265 271 274 279 285 289 292 297 301 302 301 300 303 307 311 312 314 319 329 336 337 341 345 346 333 324 329 329 335 338 334 336 332 317
nan nan nan nan nan nan nan nan nan nan nan nan nan nan nan nan nan nan nan nan nan nan nan nan nan nan nan nan nan nan 285 285 285 288 291 288 282 277 274 262 258 254 244 242 243 245 245 244 244 243 245 252 260 266 275 280 282 284 288 295 299 300 300 297 299 306 309 310 312 318 326 333 331 333 339 340 333 318 317 319 323 330 332 334 335 338
nan nan nan nan nan nan nan nan nan nan nan nan nan nan nan nan nan nan nan nan nan nan nan nan nan nan nan nan nan nan 287 285 290 294 292 289 286 282 277 270 260 252 249 243 239 241 241 242 240 237 239 246 252 259 268 277 279 282 284 290 296 298 296 293 298 303 308 311 314 318 322 325 322 321 324 328 328 320 311 310 315 322 326 331 340 344
nan nan nan nan nan nan nan nan nan nan nan nan nan nan nan nan nan nan nan nan nan nan nan nan nan nan nan nan nan 294 293 292 290 289 290 289 285 280 276 271 264 256 252 249 245 237 237 239 240 238 237 240 247 253 262 269 276 279 283 286 292 294 294 293 295 299 307 311 316 317 316 315 312 310 310 318 325 324 317 304 304 309 313 317 326 334
nan nan nan nan nan nan nan nan nan nan nan nan nan nan nan nan nan nan nan nan nan nan nan nan nan nan nan nan nan 299 293 289 nan nan 289 285 nan 277 nan 271 270 265 257 253 248 242 234 231 236 240 239 240 242 248 254 263 269 275 279 282 289 292 292 288 290 295 304 310 312 314 310 308 304 298 305 315 322 322 316 304 290 290 298 305 309 317
nan nan nan nan nan nan nan nan nan nan nan nan nan nan nan nan nan nan nan nan nan nan nan nan nan nan nan nan nan nan nan 294 nan nan nan nan nan nan nan nan 269 267 262 257 253 247 238 234 232 235 238 239 241 243 250 256 264 271 275 278 286 292 289 288 287 292 298 302 305 307 303 299 298 302 312 316 320 321 318 309 289 273 282 290 299 303
nan nan nan nan nan nan nan nan nan nan nan nan nan nan nan nan nan nan nan nan nan nan nan nan nan nan nan nan nan nan nan nan nan nan nan nan nan nan nan nan nan 264 262 259 254 250 244 238 234 233 235 239 238 239 244 250 256 263 269 273 280 286 287 284 284 285 286 288 290 293 294 293 297 304 310 313 316 316 318 316 298 273 266 279 287 297
nan nan nan nan nan nan nan nan nan nan nan nan nan nan nan nan nan nan nan nan nan nan nan nan nan nan nan nan nan nan nan nan nan nan nan nan nan nan nan nan nan 267 265 261 257 251 246 240 233 234 236 238 243 244 244 250 254 257 264 272 278 282 283 286 284 286 283 285 284 283 284 287 293 300 304 309 312 310 316 323 311 285 271 273 282 289
nan nan nan nan nan nan nan nan nan nan nan nan nan nan nan nan nan nan nan nan nan nan nan nan nan nan nan nan nan nan nan nan nan nan nan nan nan nan nan nan nan nan 268 264 261 257 251 247 240 233 231 235 241 246 247 246 252 260 263 268 275 279 281 283 283 281 286 291 290 285 282 282 286 294 299 305 307 304 308 319 319 299 280 277 281 284
nan nan nan nan nan nan nan nan nan nan nan nan nan nan nan nan nan nan nan nan nan nan nan nan nan nan nan nan nan nan nan nan nan nan nan nan nan nan nan nan nan nan 269 269 267 264 262 258 253 244 237 236 237 239 244 247 249 256 259 266 272 276 278 279 279 284 286 283 286 287 286 284 282 286 291 299 302 302 301 303 308 305 290 277 274 279
nan nan nan nan nan nan nan nan nan nan nan nan nan nan nan nan nan nan nan nan nan nan nan nan nan nan nan nan nan nan nan nan nan nan nan nan nan nan nan nan 268 nan 268 270 270 269 266 264 260 261 256 249 243 235 232 240 246 250 253 258 263 264 267 271 275 278 279 277 278 278 280 282 277 276 285 293 294 294 296 295 291 298 296 287 273 268
nan nan nan nan nan nan nan nan nan nan nan nan nan nan nan nan nan nan nan nan nan nan nan nan nan nan nan nan nan nan nan nan nan nan nan nan nan nan nan nan nan nan 270 271 272 271 270 266 262 260 255 254 255 256 249 236 232 235 242 246 241 246 259 260 263 264 267 270 273 272 272 275 274 275 276 281 283 290 291 290 288 287 290 289 273 260
nan nan nan nan nan nan nan nan nan nan nan nan nan nan nan nan nan nan nan nan nan nan nan nan nan nan nan nan nan nan nan nan nan nan nan nan nan nan nan nan nan nan nan nan 275 276 274 273 270 268 264 261 258 255 258 257 246 233 231 236 242 243 243 244 247 246 243 246 250 252 259 269 270 272 278 279 276 279 282 279 273 274 277 282 274 261
nan nan nan nan nan nan nan nan nan nan nan nan nan nan nan nan nan nan nan nan nan nan nan nan nan nan nan nan 290 nan nan nan nan nan nan nan nan nan nan nan nan nan nan nan nan 275 277 277 274 270 266 263 260 259 259 256 249 246 248 247 242 241 245 247 252 263 263 253 241 242 256 267 269 270 272 271 270 275 277 272 264 260 261 262 268 260
nan nan nan nan nan nan nan nan nan nan nan nan nan nan nan nan nan nan nan nan nan nan nan nan nan nan nan nan nan nan nan nan nan nan nan nan nan nan nan nan nan nan nan nan nan 271 274 276 275 nan nan nan 262 256 255 254 252 248 251 248 242 241 243 252 253 260 256 248 253 263 268 268 267 267 266 265 264 268 269 268 267 266 259 244 248 264
nan nan nan nan nan nan nan nan nan nan nan nan nan nan nan nan nan nan nan nan nan nan nan nan nan nan nan nan nan nan nan nan nan nan nan nan nan nan nan nan nan nan nan nan nan nan 264 nan 270 nan nan nan nan nan nan 246 244 246 248 249 246 243 245 245 246 251 249 246 249 259 265 264 261 257 259 259 258 258 257 257 257 261 262 256 249 257
nan nan nan nan nan nan nan nan nan nan nan nan nan nan nan nan nan nan nan nan nan nan nan nan nan nan nan nan nan nan nan nan nan nan nan nan nan nan nan nan nan nan nan nan nan nan nan 249 249 258 268 nan nan nan nan nan nan 240 243 246 249 250 249 248 243 244 245 245 249 253 256 258 253 250 253 257 255 254 250 245 244 248 249 252 255 253
nan nan nan nan nan nan nan nan nan nan nan nan nan nan nan nan nan nan nan nan nan nan nan nan nan nan nan nan nan nan nan nan nan nan nan nan nan nan nan nan nan nan nan nan nan nan nan nan nan nan nan nan nan nan nan nan nan nan nan nan nan 248 nan 246 243 nan nan 242 244 245 249 252 250 247 251 255 254 249 245 241 237 238 241 240 236 236
nan nan nan nan nan nan nan nan nan nan nan nan nan nan nan nan nan nan nan nan nan nan nan nan nan nan nan nan nan nan nan nan nan nan nan nan nan nan nan nan nan nan nan nan nan nan nan nan nan nan nan nan nan nan nan nan nan 259 nan nan nan nan nan nan nan nan nan 240 239 239 242 246 245 243 246 250 247 241 238 235 233 233 236 240 241 235
nan nan nan nan nan nan nan nan nan nan nan nan nan nan nan nan nan nan nan nan nan nan nan nan nan nan nan nan nan nan nan nan nan nan nan nan nan nan nan nan nan nan nan nan nan nan nan nan nan nan nan nan 244 258 nan 258 nan nan nan nan nan nan nan nan nan nan 242 241 241 241 240 238 238 242 246 245 239 232 230 227 225 227 230 231 234 238
nan nan nan nan nan nan nan nan nan nan nan nan nan nan nan nan nan nan nan nan nan nan nan nan nan nan nan nan nan nan nan nan nan nan nan nan nan nan nan nan nan nan nan nan nan nan nan nan nan nan nan nan nan 241 257 256 nan nan nan nan nan nan nan nan nan nan nan nan nan 245 244 238 232 236 242 238 230 226 225 225 223 224 225 226 226 225
nan nan nan nan nan nan nan nan nan nan nan nan nan nan nan nan nan nan nan nan nan nan nan nan nan nan nan nan nan nan nan nan nan nan nan nan nan nan nan nan nan nan nan nan nan nan nan nan nan nan nan nan nan nan 241 256 nan nan 255 255 257 nan nan nan nan nan nan nan nan nan 244 243 236 233 233 229 221 218 219 219 221 221 223 223 220 220
nan nan nan nan nan nan nan nan nan nan nan nan nan nan nan nan nan nan nan nan nan nan nan nan nan nan nan nan nan nan nan nan nan nan nan nan nan nan nan nan nan nan nan nan nan nan nan nan nan nan nan nan nan 223 230 242 251 nan 256 252 250 255 nan nan nan nan nan nan nan nan nan nan nan nan 228 220 215 216 216 216 218 221 220 222 220 217
nan nan nan nan nan nan nan nan nan nan nan nan nan nan nan nan nan nan nan nan nan nan nan nan nan nan nan nan nan nan nan nan nan nan nan nan nan nan nan nan nan nan nan nan nan nan nan nan nan nan nan nan nan nan 226 238 246 253 256 254 252 nan 248 nan nan nan nan nan nan nan nan nan nan nan nan nan 216 214 215 215 216 218 222 223 223 222
nan nan nan nan nan nan nan nan nan nan nan nan nan nan nan nan nan nan nan nan nan nan nan nan nan nan nan nan nan nan nan nan nan nan nan nan nan 285 nan nan nan nan nan nan nan nan nan nan nan nan nan nan nan 218 220 232 241 251 255 255 253 nan nan nan nan nan nan nan nan nan nan nan nan nan nan nan nan nan 214 214 214 215 217 220 224 226
nan nan nan nan nan nan nan nan nan nan nan nan nan nan nan nan nan nan nan nan nan nan nan nan nan nan nan nan nan nan nan nan nan nan nan 311 299 289 nan nan nan nan nan nan nan nan nan nan nan nan nan nan nan 217 217 222 236 248 253 254 253 nan nan nan nan nan nan nan nan nan nan nan nan nan nan nan nan nan nan nan nan 213 214 218 220 224
nan nan nan nan nan nan nan nan nan nan nan nan nan nan nan nan nan nan nan nan nan nan nan nan nan nan nan nan nan nan nan nan nan nan nan nan 313 303 294 285 271 nan nan nan nan nan nan nan nan nan nan nan nan 216 217 214 228 247 251 251 250 249 nan nan nan nan nan nan nan nan nan nan nan nan nan nan nan nan nan nan nan nan nan nan 220 223
nan nan nan nan nan nan nan nan nan nan nan nan nan nan nan nan nan nan nan nan nan nan nan nan nan nan nan nan nan nan nan nan nan nan nan 317 326 316 301 292 281 267 nan nan nan nan nan nan nan nan nan nan nan 212 213 213 222 244 251 252 250 nan nan nan nan nan nan nan nan nan nan nan nan nan nan nan nan nan nan nan nan nan nan nan nan nan
nan nan nan nan nan nan nan nan nan nan nan nan nan nan nan nan nan nan nan nan nan nan nan nan nan nan nan nan nan nan nan nan nan nan nan nan nan nan nan 295 282 271 258 nan nan nan nan nan nan nan nan nan nan nan 211 215 224 236 245 250 251 nan nan nan nan nan nan nan nan nan nan nan nan nan nan nan nan nan nan nan nan nan nan nan nan nan
nan nan nan nan nan nan nan nan nan nan nan nan nan nan nan nan nan nan nan nan nan nan nan nan nan nan nan nan nan nan nan nan nan nan nan nan nan nan nan 303 279 268 263 nan nan nan nan nan nan nan nan nan nan nan 215 nan 222 231 238 245 249 249 nan nan nan nan nan nan nan nan nan nan nan nan nan nan nan nan nan nan nan nan nan nan nan nan
nan nan nan nan nan nan nan nan nan nan nan nan nan nan nan nan nan nan nan nan nan nan nan nan nan nan nan nan nan nan nan nan nan nan nan nan nan nan nan nan nan nan nan nan nan nan nan nan nan nan nan nan nan nan 218 218 nan 226 228 nan 240 nan nan nan nan nan nan nan nan nan nan nan nan nan nan nan nan nan nan nan nan nan nan nan nan nan
nan nan nan nan nan nan nan nan nan nan nan nan nan nan nan nan nan nan nan nan nan nan nan nan nan nan nan nan nan nan nan nan nan nan nan nan nan nan nan 320 300 nan nan nan nan nan nan nan nan nan nan nan nan nan nan 216 nan nan nan nan nan nan nan nan nan nan nan nan nan nan nan nan nan 252 nan nan nan nan nan nan nan nan nan nan nan nan
nan nan nan nan nan nan nan nan nan nan nan nan nan nan nan nan nan nan nan nan nan nan nan nan nan nan nan nan nan nan nan nan nan nan nan nan nan nan nan nan 311 nan nan nan nan nan nan nan nan nan nan nan nan nan nan nan 214 nan nan nan nan nan nan nan nan nan nan nan nan nan nan 253 256 nan nan nan nan nan nan nan nan nan nan nan nan nan
nan nan nan nan nan nan nan nan nan nan nan nan nan nan nan nan nan nan nan nan nan nan nan nan nan nan nan nan nan nan nan nan nan nan nan nan nan nan nan nan nan nan nan nan nan nan nan nan nan nan nan nan nan nan nan nan nan nan nan nan nan nan nan nan nan nan nan 239 244 246 246 nan nan nan nan nan nan nan nan nan nan nan nan nan nan nan
nan nan nan nan nan nan nan nan nan nan nan nan nan nan nan nan nan nan nan nan nan nan nan nan nan nan nan nan nan nan nan nan nan nan nan nan nan nan nan nan nan nan nan nan nan nan nan nan nan nan nan nan nan nan nan nan nan nan nan nan nan nan nan nan nan nan nan nan nan nan nan nan nan nan nan nan nan nan nan nan nan nan nan nan nan nan
nan nan nan nan nan nan nan nan nan nan nan nan nan nan nan nan nan nan nan nan nan nan nan nan nan nan nan nan nan nan nan nan nan nan nan nan nan nan nan nan nan nan nan nan nan nan nan nan nan nan nan nan nan nan nan nan nan nan nan nan nan nan nan nan nan nan nan nan nan nan nan nan nan nan nan nan nan nan nan nan nan nan nan nan nan nan
nan nan nan nan nan nan nan nan nan nan nan nan nan nan nan nan nan nan nan nan nan nan nan nan nan nan nan nan nan nan nan nan nan nan nan nan nan nan nan nan nan nan nan nan nan nan nan nan nan nan nan nan nan nan nan nan nan nan nan nan nan nan nan nan nan nan nan nan nan nan nan nan nan nan nan nan nan nan nan nan nan nan nan nan nan nan
nan nan nan nan nan nan nan nan nan nan nan nan nan nan nan nan nan nan nan nan nan nan nan nan nan nan nan nan nan nan nan nan nan nan nan nan nan nan nan nan nan nan nan nan nan nan nan nan nan nan nan nan nan nan nan nan nan nan nan nan nan nan nan nan nan nan nan nan nan nan nan nan nan nan nan nan nan nan nan nan nan nan nan nan nan nan
nan nan nan nan nan nan nan nan nan nan nan nan nan nan nan nan nan nan nan nan nan nan nan nan nan nan nan nan nan nan nan nan nan nan nan nan nan nan nan nan nan nan nan nan nan nan nan nan nan nan nan nan nan nan nan nan nan nan nan nan nan nan nan nan nan nan nan nan nan nan nan nan nan nan nan nan nan nan nan nan nan nan nan nan nan nan
nan nan nan nan nan nan nan nan nan nan nan nan nan nan nan nan nan nan nan nan nan nan nan nan nan nan nan nan nan nan nan nan nan nan nan nan nan nan nan nan nan nan nan nan nan nan nan nan nan nan nan nan nan nan nan nan nan nan nan nan nan nan nan nan nan nan nan nan nan nan nan nan nan nan nan nan nan nan nan nan nan nan nan nan nan nan